When you browse on this site, cookies collect data to enhance your experience and personalize the content and advertising you see.
Visit our Privacy Policy to learn more. By continuing to use the site, you agree to this use of cookies and data.
EN

Hourly Weather Metzingen

Today, 7 July, Tuesday

Time Temperature Precipitation Wind Pressure Humidity
00:00 +11°C° 0 mm 1 mps 733 mmHg 89%
01:00 +11°C° 0 mm 1 mps 733 mmHg 91%
02:00 +10°C° 0 mm 1 mps 733 mmHg 91%
03:00 +10°C° 0 mm 1 mps 733 mmHg 91%
04:00 +9°C° 0 mm 0 mps 733 mmHg 91%
05:00 +10°C° 0 mm 0 mps 733 mmHg 87%
06:00 +12°C° 0 mm 0 mps 733 mmHg 83%
07:00 +13°C° 0 mm 0 mps 733 mmHg 78%
08:00 +15°C° 0 mm 0 mps 733 mmHg 71%
09:00 +18°C° 0 mm 1 mps 732 mmHg 64%
10:00 +20°C° 0 mm 1 mps 732 mmHg 57%
11:00 +21°C° 0 mm 1 mps 732 mmHg 55%
12:00 +22°C° 0 mm 1 mps 731 mmHg 52%
13:00 +23°C° 0 mm 1 mps 731 mmHg 49%
14:00 +23°C° 0 mm 1 mps 731 mmHg 50%
15:00 +23°C° 0 mm 1 mps 731 mmHg 50%
16:00 +23°C° 0 mm 2 mps 731 mmHg 51%
17:00 +22°C° 0 mm 1 mps 730 mmHg 57%
18:00 +21°C° 0 mm 1 mps 730 mmHg 63%
19:00 +20°C° 0 mm 1 mps 730 mmHg 68%
20:00 +19°C° 0 mm 1 mps 730 mmHg 72%
21:00 +16°C° 0 mm 1 mps 731 mmHg 75%
22:00 +14°C° 0 mm 1 mps 731 mmHg 78%
23:00 +14°C° 0 mm 1 mps 731 mmHg 79%

Tomorrow, 8 July, Wednesday

Time Temperature Precipitation Wind Pressure Humidity
00:00 +13°C° 0 mm 1 mps 731 mmHg 80%
01:00 +13°C° 0 mm 1 mps 730 mmHg 82%
02:00 +12°C° 0 mm 1 mps 730 mmHg 83%
03:00 +12°C° 0 mm 1 mps 730 mmHg 84%
04:00 +12°C° 0 mm 1 mps 730 mmHg 85%
05:00 +13°C° 0 mm 1 mps 730 mmHg 81%
06:00 +15°C° 0 mm 1 mps 730 mmHg 78%
07:00 +16°C° 0 mm 1 mps 730 mmHg 74%
08:00 +18°C° 0 mm 2 mps 730 mmHg 68%
09:00 +19°C° 0 mm 2 mps 730 mmHg 63%
10:00 +21°C° 0 mm 3 mps 730 mmHg 57%
11:00 +22°C° 0 mm 3 mps 730 mmHg 55%
12:00 +24°C° 0 mm 3 mps 730 mmHg 53%
13:00 +25°C° 0 mm 4 mps 730 mmHg 51%
14:00 +25°C° 0 mm 4 mps 730 mmHg 53%
15:00 +25°C° 0 mm 4 mps 730 mmHg 55%
16:00 +25°C° 0 mm 4 mps 730 mmHg 57%
17:00 +23°C° 0 mm 4 mps 731 mmHg 63%
18:00 +22°C° 0 mm 3 mps 731 mmHg 70%
19:00 +21°C° 0 mm 2 mps 731 mmHg 77%
20:00 +19°C° 0 mm 2 mps 731 mmHg 81%
21:00 +19°C° 0 mm 1 mps 731 mmHg 86%
22:00 +15°C° 0 mm 0 mps 731 mmHg 90%
23:00 +16°C° 0 mm 1 mps 731 mmHg 91%

Day after tomorrow, 9 July, Thursday

Time Temperature Precipitation Wind Pressure Humidity
00:00 +16°C° 0 mm 1 mps 731 mmHg 91%
01:00 +15°C° 0 mm 1 mps 731 mmHg 92%
02:00 +15°C° 0 mm 1 mps 731 mmHg 92%
03:00 +15°C° 0 mm 1 mps 731 mmHg 92%
04:00 +15°C° 0 mm 1 mps 731 mmHg 92%
05:00 +16°C° 0 mm 1 mps 731 mmHg 89%
06:00 +16°C° 0 mm 0 mps 731 mmHg 86%
07:00 +17°C° 0 mm 0 mps 731 mmHg 83%
08:00 +21°C° 0 mm 1 mps 731 mmHg 77%
09:00 +22°C° 0 mm 1 mps 732 mmHg 71%
10:00 +24°C° 0 mm 1 mps 732 mmHg 65%
11:00 +25°C° 0 mm 1 mps 731 mmHg 62%
12:00 +26°C° 0 mm 1 mps 731 mmHg 59%
13:00 +27°C° 0 mm 1 mps 731 mmHg 56%
14:00 +27°C° 0 mm 1 mps 730 mmHg 56%
15:00 +27°C° 0 mm 1 mps 730 mmHg 56%
16:00 +27°C° 0 mm 1 mps 729 mmHg 56%
17:00 +27°C° 0.1 mm 1 mps 729 mmHg 62%
18:00 +26°C° 0.1 mm 1 mps 729 mmHg 68%
19:00 +25°C° 0.1 mm 1 mps 729 mmHg 74%
20:00 +23°C° 0 mm 1 mps 729 mmHg 78%
21:00 +22°C° 0 mm 1 mps 729 mmHg 82%
22:00 +20°C° 0 mm 1 mps 729 mmHg 86%
23:00 +20°C° 0 mm 1 mps 728 mmHg 87%

10 July, Friday

Time Temperature Precipitation Wind Pressure Humidity
00:00 +19°C° 0 mm 1 mps 728 mmHg 87%
01:00 +18°C° 0 mm 2 mps 728 mmHg 88%
02:00 +17°C° 0 mm 2 mps 727 mmHg 86%
03:00 +17°C° 0 mm 2 mps 727 mmHg 85%
04:00 +17°C° 0 mm 2 mps 726 mmHg 83%
05:00 +18°C° 0 mm 2 mps 726 mmHg 81%
06:00 +20°C° 0 mm 2 mps 726 mmHg 79%
07:00 +21°C° 0 mm 2 mps 726 mmHg 76%
08:00 +22°C° 0.3 mm 3 mps 726 mmHg 75%
09:00 +23°C° 0.3 mm 4 mps 727 mmHg 74%
10:00 +25°C° 0.3 mm 5 mps 727 mmHg 72%
11:00 +23°C° 1 mm 5 mps 727 mmHg 75%
12:00 +22°C° 1 mm 6 mps 727 mmHg 79%
13:00 +22°C° 1 mm 6 mps 727 mmHg 82%
14:00 +21°C° 0.2 mm 6 mps 728 mmHg 77%
15:00 +21°C° 0.2 mm 6 mps 728 mmHg 72%
16:00 +21°C° 0.2 mm 6 mps 729 mmHg 67%
17:00 +20°C° 0 mm 5 mps 729 mmHg 66%
18:00 +19°C° 0 mm 4 mps 730 mmHg 65%
19:00 +19°C° 0 mm 4 mps 730 mmHg 64%
20:00 +17°C° 0 mm 3 mps 731 mmHg 69%
21:00 +15°C° 0 mm 2 mps 731 mmHg 73%
22:00 +14°C° 0 mm 1 mps 732 mmHg 78%
23:00 +13°C° 0 mm 1 mps 732 mmHg 78%

11 July, Saturday

Time Temperature Precipitation Wind Pressure Humidity
00:00 +13°C° 0 mm 1 mps 732 mmHg 79%
01:00 +12°C° 0 mm 0 mps 732 mmHg 79%
02:00 +11°C° 0 mm 0 mps 732 mmHg 80%
03:00 +11°C° 0 mm 0 mps 733 mmHg 81%
04:00 +10°C° 0 mm 0 mps 733 mmHg 82%
05:00 +11°C° 0 mm 0 mps 733 mmHg 78%
06:00 +13°C° 0 mm 0 mps 733 mmHg 75%
07:00 +14°C° 0 mm 0 mps 733 mmHg 71%
08:00 +15°C° 0 mm 0 mps 733 mmHg 65%
09:00 +19°C° 0 mm 1 mps 734 mmHg 59%
10:00 +20°C° 0 mm 1 mps 734 mmHg 53%
11:00 +21°C° 0 mm 1 mps 734 mmHg 51%
12:00 +21°C° 0 mm 1 mps 733 mmHg 50%
13:00 +22°C° 0 mm 1 mps 733 mmHg 48%
14:00 +22°C° 0 mm 1 mps 733 mmHg 48%
15:00 +21°C° 0 mm 2 mps 733 mmHg 48%
16:00 +21°C° 0 mm 2 mps 733 mmHg 49%
17:00 +20°C° 0 mm 2 mps 733 mmHg 54%
18:00 +20°C° 0 mm 2 mps 733 mmHg 59%
19:00 +20°C° 0 mm 1 mps 733 mmHg 65%
20:00 +18°C° 0 mm 1 mps 734 mmHg 68%
21:00 +15°C° 0 mm 1 mps 734 mmHg 72%
22:00 +13°C° 0 mm 1 mps 734 mmHg 76%
23:00 +13°C° 0 mm 1 mps 734 mmHg 77%

12 July, Sunday

Time Temperature Precipitation Wind Pressure Humidity
00:00 +12°C° 0 mm 1 mps 734 mmHg 78%
01:00 +12°C° 0 mm 1 mps 734 mmHg 80%
02:00 +12°C° 0 mm 1 mps 734 mmHg 81%
03:00 +10°C° 0 mm 0 mps 734 mmHg 83%
04:00 +10°C° 0 mm 0 mps 734 mmHg 84%
05:00 +12°C° 0 mm 1 mps 734 mmHg 81%
06:00 +13°C° 0 mm 1 mps 735 mmHg 78%
07:00 +15°C° 0 mm 1 mps 735 mmHg 74%
08:00 +16°C° 0 mm 2 mps 735 mmHg 69%
09:00 +18°C° 0 mm 2 mps 735 mmHg 64%
10:00 +19°C° 0 mm 3 mps 735 mmHg 59%
11:00 +20°C° 0 mm 3 mps 735 mmHg 56%
12:00 +21°C° 0 mm 3 mps 735 mmHg 53%
13:00 +22°C° 0 mm 3 mps 735 mmHg 51%
14:00 +22°C° 0 mm 3 mps 734 mmHg 52%
15:00 +22°C° 0 mm 3 mps 734 mmHg 52%
16:00 +23°C° 0 mm 4 mps 734 mmHg 53%
17:00 +21°C° 0 mm 3 mps 734 mmHg 59%
18:00 +20°C° 0 mm 3 mps 734 mmHg 64%
19:00 +19°C° 0 mm 3 mps 734 mmHg 69%
20:00 +17°C° 0 mm 2 mps 734 mmHg 72%
21:00 +15°C° 0 mm 2 mps 734 mmHg 76%
22:00 +14°C° 0 mm 2 mps 734 mmHg 79%
23:00 +13°C° 0 mm 2 mps 734 mmHg 79%
Show more